Regional Weather Roundup
Issued by NWS

Home | Current Version | Previous Version | Text Only | Print | Product List | Glossary On
Versions: 1 2 3 4 5 6 7 8 9 10 11 12 13 14 15 16 17 18 19 20 21 22 23 24 25 26 27 28 29 30 31 32 33 34 35 36 37 38 39 40 41 42 43 44 45 46 47 48 49 50
000
ASUS44 KOUN 270910
RWROK

WEATHER ROUNDUP FOR OKLAHOMA
NATIONAL WEATHER SERVICE NORMAN OK
400 AM CDT MON APR 27 2015

NOTE: "FAIR" INDICATES FEW OR NO CLOUDS BELOW 12,000 FEET WITH NO
      SIGNIFICANT WEATHER AND/OR OBSTRUCTIONS TO VISIBILITY.

OKZ001>007-009>012-014-015-017-271000-
NORTHWEST OKLAHOMA AND THE PANHANDLE

CITY           SKY/WX    TMP DP  RH WIND       PRES   REMARKS
GAGE           RAIN      48  47  96 NE17G28   29.89R FOG
GUYMON         LGT RAIN  46  45  96 NE13      29.93F FOG
ENID/WOODRING  CLOUDY    52  50  93 NE18G25   29.86F
$$

OKZ016-021>023-033>039-044-045-271000-
SOUTHWEST OKLAHOMA

CITY           SKY/WX    TMP DP  RH WIND       PRES   REMARKS
LAWTON/REGL    CLOUDY    56  52  86 NE15G24   29.74R
LAWTON/FT SILL CLOUDY    55  54  94 NE13      29.73F
FREDERICK      LGT RAIN  55  53  93 NE16G26   29.69F
CLINTON        LGT RAIN  50  47  89 NE23G29   29.80F
HOBART         LGT RAIN  50  48  93 NE22G29   29.77F
ALTUS AFB      LGT RAIN  52  52 100 NE20G32   29.73R
$$

OKZ018>020-024>031-271000-
CENTRAL OKLAHOMA

CITY           SKY/WX    TMP DP  RH WIND       PRES   REMARKS
OKLAHOMA CITY  CLOUDY    54  48  82 NE25G31   29.80R
OKC/WILEY POST CLOUDY    52  49  89 NE20      29.80F
OKC/TINKER AFB CLOUDY    51  49  91 NE16G26   29.78S
STILLWATER     MOCLDY    53  48  83 NE17      29.86F
GUTHRIE        CLOUDY    52  49  89 NE17G23   29.81F
$$

OKZ008-013-054>072-271000-
NORTHEAST OKLAHOMA

CITY           SKY/WX    TMP DP  RH WIND       PRES   REMARKS
TULSA          CLOUDY    55  51  86 NE6       29.90S
TULSA/JONES    CLOUDY    56  50  80 NE10      29.90S
PONCA CITY     LGT RAIN  52  49  89 NE15      29.91F
BARTLESVILLE   LGT RAIN  51  48  89 NE6       29.96R
MUSKOGEE       CLOUDY    56  51  84 E12       29.90R
$$

OKZ032-040>043-046>053-073>077-271000-
SOUTH CENTRAL/SOUTHEAST OKLAHOMA

CITY           SKY/WX    TMP DP  RH WIND       PRES   REMARKS
ARDMORE/DWNTWN CLOUDY    61  59  94 E16G23    29.71F
MCALESTER      CLOUDY    59  57  93 E10G24    29.78F
$$



USA.gov is the U.S. government's official web portal to all federal, state and local government web resources and services.